SL-19 DEB, 23489

Orbit data source: Space-Track

SL-19 DEB, 23489 is space debris in LEO originally from a launch on Mon, 26 Dec 1994 UTC launched from the Tyuratam Missile And Space Complex (TTMTR). Debris objects in space refer to the collection of defunct objects orbiting the Earth. Examples of debris include non-operational satellites, rocket bodies, and fragments generated from explosions, collisions, or faulty payload assembly.

Loading next visibility...
Identifier
23489, 1994-085M
Orbit
LEO
Country
Flag of CISCIS
Related business
Manufacturer
Unknown
Mission
Spacecraft
Bus & Motor
Unknown
Mass
Unknown
Launch date (UTC)
1994-12-26 (31 years ago)
Launch vehicle
Unknown
Launch site
Tyuratam Missile And Space Complex (TTMTR)
Object type
Payload
Rocket body
Debris
Shape & HBR
Unknown shape, 0.5 m
Radar Cross Section
Medium (>0.1 m² and <1 m²)

Expand to show TLE details & history
Last TLE update: 9 hours ago

TLE from 9 hours ago
0 SL-19 DEB
1 23489U 94085M   26013.30535950  .00000307  00000-0  96354-2 0  9993
2 23489  64.9323 275.0903 0186002 229.7317 222.6705 11.29035211278498
Epoch: 2026-01-13T07:19Z
TLE epoch observation values (Epoch: 2026-01-13T07:19:43.060Z)
Latitude
65.01443°
Longitude
144.69008°
Altitude
2,141.52 km
Speed
6.799 km/s
True Right ascension
00h 29m 38s
True Declination
64° 54' 14"
Sunlit
Object was in daylight at epoch
Visualization orbit readout
Latitude
Unknown
Longitude
Unknown
Altitude
Unknown
Speed
Unknown
Apparent Right ascension
Unknown
Apparent Declination
Unknown
Sunlit
N/A
Visualization observer readout
Local Sidereal Time
16:36:48
Azimuth
Unknown
Elevation
Unknown
Doppler factor
Unknown
Orbital elements
Apogee altitude
2,170.001 km
Perigee altitude
1,857.814 km
Semi-major axis
8,392.044 km
Eccentricity
0.0186
Inclination
64.9323°
RAAN
275.0903°
Arg. of periapsis
229.7317°
True anomaly
221.2503°
Mean anomaly
222.6705°
Eccentric anomaly
221.95798°
Mean motion
2.8232 °/min
Orbital period
127.51 mins
BSTAR
0.0096354
Loading maneuver chart data...
Computing Atmospheric mass density...
Loading historical data...
Loading historical data...
Loading historical data...
Loading historical data...
Loading historical data...
Loading historical data...
Loading historical data...

Documentation

Showing up to 5 results
|